Chicago Executive, IL

2:58 PM CST on December 11, 2019 (GMT -0600)
Chicago Executive

Weather History for KPWK - September, 2019

Change the Weather History Date:

Friday, September 13, 2019

  Actual Average Record
Temperature  
Mean Temperature 71 °F 66 °F  
Max Temperature 78 °F 76 °F 94 °F (2005)
Min Temperature 64 °F 56 °F 42 °F (2014)
Degree Days  
Heating Degree Days 0 2  
Month to date heating degree days 2 18  
Since 1 July heating degree days 2 28  
Cooling Degree Days 6 3  
Month to date cooling degree days 75 53  
Year to date cooling degree days 882 750  
Growing Degree Days 21 (Base 50)    
Moisture  
Dew Point 64 °F    
Average Humidity 79    
Maximum Humidity 93    
Minimum Humidity 51    
Precipitation  
Precipitation 1.93 in 0.10 in 0.15 in (2012)
Month to date precipitation 3.93 1.39  
Year to date precipitation 33.25 23.87  
Sea Level Pressure  
Sea Level Pressure 30.01 in    
Wind  
Wind Speed 7 mph ()    
Max Wind Speed 24 mph    
Max Gust Speed 39 mph    
Visibility 7.3 miles    
Events Rain , Thunderstorm    
T = Trace of Precipitation, MM = Missing Value Source: Averaged Metar Reports

Daily Weather History Graph

Daily Weather History Graph

Search for Another Location

Airport or City:

Astronomy

Sep. 13, 2019 Rise Set
Actual Time 6:29 AM CDT 7:05 PM CDT
Civil Twilight 6:01 AM CDT 7:33 PM CDT
Nautical Twilight 5:27 AM CDT 8:06 PM CDT
Astronomical Twilight 4:53 AM CDT 8:40 PM CDT
Moon 7:19 PM CDT (9/13) 5:44 AM CDT (9/13)
Length of Visible Light 13h 31m
Length of Day
12h 35m
Full, 100% of the Moon is Illuminated
Sep 13
Full
Sep 13
Full
Sep 21
Last Quarter
Sep 28
New
Oct 5
First Quarter

Hourly Weather History & Observations

Time (CDT) Temp. Dew Point Humidity Pressure Visibility Wind Dir Wind Speed Gust Speed Precip Events Conditions
12:34 AM 75.9 °F 69.1 °F 79% 29.98 in 10.0 mi SSE 9.2 mph - N/A Thunderstorm Partly Cloudy
12:52 AM 77.0 °F 70.0 °F 79% 29.97 in 10.0 mi SSE 9.2 mph - 0.00 in Rain , Thunderstorm Light Rain
1:25 AM 71.1 °F 66.9 °F 87% 30.04 in 1.0 mi NW 12.7 mph 28.8 mph 0.39 in Rain , Thunderstorm Heavy Thunderstorms and Rain
1:29 AM 71.1 °F 66.9 °F 87% 30.05 in 1.2 mi Calm Calm - 0.45 in Rain , Thunderstorm Heavy Thunderstorms and Rain
1:38 AM 70.0 °F 66.9 °F 90% 30.03 in 1.0 mi NW 8.1 mph - 0.70 in Rain , Thunderstorm Heavy Thunderstorms and Rain
1:46 AM 69.8 °F 66.2 °F 88% 30.02 in 1.8 mi West 10.4 mph 17.3 mph 0.76 in Rain , Thunderstorm Light Thunderstorms and Rain
1:48 AM 69.8 °F 66.2 °F 88% 30.01 in 3.0 mi West 5.8 mph 17.3 mph 0.77 in Rain , Thunderstorm Light Thunderstorms and Rain
1:52 AM 71.1 °F 66.9 °F 87% 29.99 in 8.0 mi Calm Calm - 0.78 in Rain , Thunderstorm Light Thunderstorms and Rain
1:56 AM 71.1 °F 66.9 °F 87% 30.01 in 7.0 mi West 5.8 mph - 0.01 in Rain , Thunderstorm Light Thunderstorms and Rain
2:14 AM 70.0 °F 66.0 °F 87% 29.99 in 5.0 mi North 6.9 mph - 0.08 in Rain , Thunderstorm Light Rain
2:26 AM 70.0 °F 66.9 °F 90% 29.98 in 6.0 mi ENE 4.6 mph - 0.14 in Rain Heavy Rain
2:52 AM 70.0 °F 66.9 °F 90% 29.97 in 6.0 mi East 3.5 mph - 0.22 in Rain Rain
3:13 AM 70.0 °F 66.9 °F 90% 29.98 in 10.0 mi East 5.8 mph - 0.01 in Rain , Thunderstorm Light Thunderstorms and Rain
3:37 AM 70.0 °F 66.9 °F 90% 30.02 in 1.8 mi WNW 4.6 mph - 0.24 in Rain , Thunderstorm Heavy Thunderstorms and Rain
3:52 AM 70.0 °F 68.0 °F 93% 30.00 in 4.0 mi Calm Calm - 0.40 in Rain , Thunderstorm Light Thunderstorms and Rain
3:54 AM 70.0 °F 68.0 °F 93% 30.01 in 5.0 mi Calm Calm - 0.01 in Rain , Thunderstorm Light Rain
4:04 AM 70.0 °F 66.9 °F 90% 30.00 in 2.0 mi Variable 3.5 mph - 0.13 in Rain , Thunderstorm Thunderstorms and Rain
4:07 AM 70.0 °F 66.9 °F 90% 30.01 in 1.8 mi ESE 5.8 mph - 0.18 in Rain , Thunderstorm Heavy Thunderstorms and Rain
4:13 AM 70.0 °F 66.9 °F 90% 30.00 in 2.0 mi SE 6.9 mph - 0.20 in Rain , Thunderstorm Thunderstorms and Rain
4:21 AM 70.0 °F 66.9 °F 90% 30.00 in 3.0 mi SE 9.2 mph - 0.27 in Rain , Thunderstorm Heavy Thunderstorms and Rain
4:52 AM 71.1 °F 66.9 °F 87% 29.96 in 9.0 mi South 9.2 mph - 0.35 in Rain Light Rain
5:52 AM 72.0 °F 68.0 °F 87% 29.97 in 6.0 mi South 9.2 mph - 0.17 in Rain Light Rain
6:02 AM 72.0 °F 69.1 °F 91% 29.98 in 9.0 mi South 9.2 mph - 0.01 in Rain Light Rain
6:12 AM 72.0 °F 69.1 °F 91% 29.97 in 10.0 mi South 8.1 mph - 0.01 in   Mostly Cloudy
6:52 AM 72.0 °F 69.1 °F 91% 29.96 in 10.0 mi SW 3.5 mph - 0.01 in   Scattered Clouds
7:39 AM 73.0 °F 69.1 °F 87% 29.99 in 10.0 mi SW 4.6 mph - 0.00 in Rain Light Rain
7:52 AM 73.0 °F 69.1 °F 87% 29.98 in 10.0 mi SW 5.8 mph - 0.00 in   Overcast
8:52 AM 73.0 °F 68.0 °F 84% 29.99 in 10.0 mi SSW 10.4 mph - N/A   Overcast
9:52 AM 73.0 °F 66.9 °F 81% 29.99 in 10.0 mi SW 6.9 mph - N/A   Clear
10:52 AM 75.9 °F 66.9 °F 74% 29.99 in 10.0 mi SW 11.5 mph - N/A   Partly Cloudy
11:52 AM 77.0 °F 62.1 °F 60% 29.99 in 10.0 mi SW 13.8 mph 23.0 mph N/A   Partly Cloudy
12:52 PM 75.9 °F 57.0 °F 52% 30.00 in 10.0 mi SW 18.4 mph 32.2 mph N/A   Clear
1:52 PM 77.0 °F 57.9 °F 52% 30.00 in 10.0 mi SW 19.6 mph 31.1 mph N/A   Partly Cloudy
2:52 PM 75.0 °F 55.9 °F 51% 30.02 in 10.0 mi WSW 19.6 mph 31.1 mph N/A   Partly Cloudy
3:52 PM 72.0 °F 55.0 °F 55% 30.03 in 10.0 mi WSW 18.4 mph 31.1 mph N/A   Overcast
4:52 PM 72.0 °F 55.9 °F 57% 30.04 in 10.0 mi West 19.6 mph 28.8 mph N/A   Overcast
5:52 PM 71.1 °F 54.0 °F 55% 30.04 in 10.0 mi West 17.3 mph 29.9 mph N/A   Clear
6:52 PM 69.1 °F 54.0 °F 58% 30.06 in 10.0 mi West 16.1 mph 24.2 mph N/A   Clear
7:52 PM 66.9 °F 54.0 °F 63% 30.09 in 10.0 mi West 6.9 mph - N/A   Clear
8:52 PM 66.0 °F 53.1 °F 63% 30.10 in 10.0 mi West 8.1 mph - N/A   Clear
9:52 PM 66.0 °F 52.0 °F 60% 30.12 in 10.0 mi SW 5.8 mph - N/A   Clear
10:52 PM 66.0 °F 53.1 °F 63% 30.13 in 10.0 mi WSW 6.9 mph - N/A   Clear
11:52 PM 64.9 °F 54.0 °F 68% 30.13 in 10.0 mi WSW 8.1 mph - N/A   Clear